Regional Weather Roundup
Issued by NWS

Home | Current Version | Previous Version | Graphics & Text | Print | Product List | Glossary Off
Versions: 1 2 3 4 5 6 7 8 9 10 11 12 13 14 15 16 17 18 19 20 21 22 23 24 25 26 27 28 29 30 31 32 33 34 35 36 37 38 39 40 41 42 43 44 45 46 47 48 49 50

000
ASUS43 KDMX 191806
RWRIA

WEATHER ROUNDUP FOR IOWA
NATIONAL WEATHER SERVICE DES MOINES IA
100 PM CDT THU OCT 19 2017

NOTE: "FAIR" INDICATES FEW OR NO CLOUDS BELOW 12,000 FEET WITH NO
SIGNIFICANT WEATHER AND/OR OBSTRUCTIONS TO VISIBILITY.

* - THESE STATIONS ARE NOT NWS STATIONS...THUS NOT UNDER NWS
QUALITY CONTROL.  THEY ALSO DO NOT REPORT WEATHER SUCH
AS PRECIPITATION OR FOG.

IAZ001>003-012>014-020>022-031>034-043>046-191900-
   NORTHWEST IOWA

CITY           SKY/WX    TMP DP  RH WIND       PRES   REMARKS
CARROLL *        N/A     84  59  42 SE16      30.07F HAZE    HX  84
CHEROKEE *       N/A     70  45  40 S14G20    30.06F
DENISON *        N/A     73  48  40 S14       30.07F
LE MARS *        N/A     73  46  38 SE17      30.03F
ORANGE CITY *    N/A     72  48  43 S14G23    30.04F
SHELDON *        N/A     72  43  35 S12G20    30.03F
SIOUX CITY       N/A     70  49  47 S15       30.05F
6HR MIN TEMP:  36; 6HR MAX TEMP:  70;

SPENCER          N/A     70  39  32 S18G24    30.06F
6HR MIN TEMP:  33; 6HR MAX TEMP:  71;

STORM LAKE *     N/A     70  39  32 S14       30.07F
$$

IAZ055>058-069>071-079>083-090>094-191900-
   SOUTHWEST IOWA

CITY           SKY/WX    TMP DP  RH WIND       PRES   REMARKS
ATLANTIC *       N/A     72  52  49 SE9G16    30.07F
AUDUBON *        N/A     72  48  43 SE15G21   30.09F
CLARINDA *       N/A     73  54  49 S9        30.09F
COUNCIL BLFS *   N/A     72  55  56 SE14      30.05F
CRESTON *        N/A     72  54  53 SE12      30.11F
HARLAN  *        N/A     73  52  46 S13       30.10F
LAMONI           N/A     70  55  59 SE7       30.11F
6HR MIN TEMP:  47; 6HR MAX TEMP:  70;

RED OAK *        N/A     73  54  49 SE8G16    30.07F
SHENANDOAH *     N/A     73  54  49 SE10      30.07F
$$

IAZ047>049-059>061-072>074-084-191900-
   CENTRAL IOWA

CITY           SKY/WX    TMP DP  RH WIND       PRES   REMARKS
AMES             N/A     69  40  34 SE13      30.11F
6HR MIN TEMP:  39; 6HR MAX TEMP:  69;

ANKENY *         N/A     70  41  35 SE10      30.12F
BOONE *          N/A     70  36  28 SE14G21   30.10F
CHARITON *       N/A     72  52  49 VRB7G15   30.11F
DES MOINES     PTSUNNY   72  43  35 E9        30.11F
6HR MIN TEMP:  51; 6HR MAX TEMP:  72;

KNOXVILLE *      N/A     72  46  40 SE9       30.11F
MARSHALLTOWN     N/A     69  36  29 SE13      30.12F
6HR MIN TEMP:  39; 6HR MAX TEMP:  69;

NEWTON *         N/A     72  39  30 SE10G18   30.12F
PELLA *          N/A     73  42  33 S9        30.13F
PERRY *          N/A     73  37  26 SE12      30.09F
$$

IAZ004>006-015-016-023>025-035-036-191900-
   NORTH CENTRAL IOWA

CITY           SKY/WX    TMP DP  RH WIND       PRES   REMARKS
ALGONA *         N/A     70  34  26 S13G24    30.09F
CLARION *        N/A     70  32  24 S16       30.10F
ESTHERVILLE      N/A     65  36  34 S18       30.07
6HR MIN TEMP:  35; 6HR MAX TEMP:  65;

FORT DODGE *     N/A     69  38  32 SE12      30.10F
MASON CITY       N/A     67  31  26 S17       30.12F
6HR MIN TEMP:  35; 6HR MAX TEMP:  67;

FOREST CITY *    N/A     68  32  26 S16G22    30.10F
WEBSTER CITY *   N/A     70  32  24 S14G23    30.08F
IOWA FALLS *     N/A     68  33  27 SE13G18   30.13F
$$

IAZ007>011-017>019-026>030-037>042-050>054-066-191900-
   NORTHEAST IOWA

CITY           SKY/WX    TMP DP  RH WIND       PRES   REMARKS
CEDAR RAPIDS     N/A     69  31  24 SE10      30.15F
6HR MIN TEMP:  45; 6HR MAX TEMP:  69;

CHARLES CITY *   N/A     68  30  24 S9G17     30.13F
CLINTON *        N/A     69  34  27 SE10      30.18
DECORAH *        N/A     68  32  26 S10       30.12F
DUBUQUE          N/A     66  30  26 SE8       30.17F
6HR MIN TEMP:  42; 6HR MAX TEMP:  66;

MONTICELLO *     N/A     70  30  23 SE8G15    30.15F
OELWEIN *        N/A     70  28  21 SE14      30.14F
WATERLOO         N/A     67  34  29 S10       30.13F
6HR MIN TEMP:  34; 6HR MAX TEMP:  68;

$$

IAZ064-065-067-068-078-191900-
   EAST CENTRAL IOWA

CITY           SKY/WX    TMP DP  RH WIND       PRES   REMARKS
DAVENPORT        N/A     69  34  27 SE12      30.19F
6HR MIN TEMP:  41; 6HR MAX TEMP:  70;

IOWA CITY        N/A     72  34  24 E10       30.16F
6HR MIN TEMP:  44; 6HR MAX TEMP:  72;

MUSCATINE *      N/A     72  36  26 E7G13     30.15F
QUAD CITIES      N/A     71  37  28 E9        30.16F
6HR MIN TEMP:  44; 6HR MAX TEMP:  72;

$$

IAZ062-063-075>077-085>089-095>099-191900-
   SOUTHEAST IOWA

CITY           SKY/WX    TMP DP  RH WIND       PRES   REMARKS
BURLINGTON       N/A     71  54  54 S6        30.15F
6HR MIN TEMP:  46; 6HR MAX TEMP:  71;

FAIRFIELD *      N/A     72  52  49 SE10      30.13F
FORT MADISON *   N/A     72  54  53 SE6       30.15F
KEOKUK *         N/A     72  54  53 VRB7      30.14F
OSKALOOSA *      N/A     73  48  41 SE10      30.13F
OTTUMWA          N/A     71  52  50 S9        30.12F
6HR MIN TEMP:  49; 6HR MAX TEMP:  71;

WASHINGTON *     N/A     73  43  33 SE9       30.15F
$$

ABBREVIATIONS USED IN REMARKS
   TC - TEMPERATURES IN CELSIUS
  WCI - WIND CHILL INDEX
   HX - HEAT INDEX
  VSB - VISIBILITY
$$





USA.gov is the U.S. government's official web portal to all federal, state and local government web resources and services.